TimeMST,TemperatureF,Dew PointF,Humidity,Sea Level PressureIn,VisibilityMPH,Wind Direction,Wind SpeedMPH,Gust SpeedMPH,PrecipitationIn,Events,Conditions,WindDirDegrees,DateUTC
12:53 AM,36.0,-0.0,22,29.80,10.0,SSW,20.7,-,N/A,,Partly Cloudy,200,2012-12-23 07:53:00
1:53 AM,35.1,-2.0,21,29.80,10.0,SSW,19.6,-,N/A,,Scattered Clouds,210,2012-12-23 08:53:00
2:53 AM,32.0,-2.0,23,29.82,10.0,SW,9.2,-,N/A,,Partly Cloudy,220,2012-12-23 09:53:00
3:53 AM,35.1,-4.0,19,29.82,10.0,SSW,15.0,-,N/A,,Clear,210,2012-12-23 10:53:00
4:53 AM,36.0,-6.0,17,29.83,10.0,SW,9.2,-,N/A,,Clear,230,2012-12-23 11:53:00
5:53 AM,32.0,-2.0,23,29.87,10.0,WSW,9.2,-,N/A,,Clear,240,2012-12-23 12:53:00
6:53 AM,34.0,-2.0,22,29.88,10.0,SW,8.1,-,N/A,,Partly Cloudy,230,2012-12-23 13:53:00
7:53 AM,37.9,-2.0,18,29.87,10.0,WSW,4.6,-,N/A,,Partly Cloudy,240,2012-12-23 14:53:00
8:53 AM,45.0,6.1,20,29.87,10.0,SW,4.6,-,N/A,,Scattered Clouds,220,2012-12-23 15:53:00
9:53 AM,48.9,8.1,19,29.87,10.0,West,10.4,-,N/A,,Scattered Clouds,270,2012-12-23 16:53:00
10:53 AM,48.0,9.0,21,29.85,10.0,SE,3.5,-,N/A,,Mostly Cloudy,130,2012-12-23 17:53:00
11:53 AM,53.1,7.0,16,29.82,10.0,NNW,3.5,-,N/A,,Mostly Cloudy,340,2012-12-23 18:53:00
12:53 PM,54.0,6.1,15,29.81,10.0,NNW,19.6,25.3,N/A,,Scattered Clouds,340,2012-12-23 19:53:00
1:53 PM,52.0,6.1,16,29.81,10.0,WNW,15.0,-,N/A,,Scattered Clouds,300,2012-12-23 20:53:00
2:53 PM,51.1,5.0,15,29.83,10.0,WNW,12.7,-,N/A,,Scattered Clouds,290,2012-12-23 21:53:00
3:53 PM,41.0,19.0,41,29.88,10.0,SE,10.4,-,N/A,,Scattered Clouds,140,2012-12-23 22:53:00
4:53 PM,33.1,19.0,56,29.91,10.0,SSE,12.7,-,N/A,,Scattered Clouds,160,2012-12-23 23:53:00
5:53 PM,28.9,18.0,64,29.96,10.0,South,13.8,-,N/A,,Scattered Clouds,170,2012-12-24 00:53:00
6:53 PM,28.9,17.1,61,29.97,10.0,South,13.8,-,N/A,,Scattered Clouds,170,2012-12-24 01:53:00
7:53 PM,28.0,17.1,63,29.94,10.0,SSE,16.1,-,N/A,,Scattered Clouds,150,2012-12-24 02:53:00
8:53 PM,28.0,16.0,61,29.89,10.0,SSE,13.8,-,N/A,,Scattered Clouds,150,2012-12-24 03:53:00
9:53 PM,28.0,15.1,58,29.88,10.0,SE,15.0,-,N/A,,Scattered Clouds,140,2012-12-24 04:53:00
10:53 PM,28.0,16.0,61,29.90,10.0,SE,16.1,-,N/A,,Mostly Cloudy,140,2012-12-24 05:53:00
11:53 PM,28.9,15.1,56,29.85,10.0,SSE,13.8,-,N/A,,Scattered Clouds,150,2012-12-24 06:53:00